Regional Weather Roundup
Issued by NWS Sioux Falls, SD

Home | Current Version | Previous Version | Text Only | Print | Product List | Glossary Off
Versions: 1 2 3 4 5 6 7 8 9 10 11 12 13 14 15 16 17 18 19 20 21 22 23 24 25 26 27 28 29 30 31 32 33 34 35 36 37 38 39 40 41 42 43 44 45 46 47 48 49 50

000
ASUS43 KFSD 281610
RWRFSD

WEATHER ROUNDUP FOR SE SOUTH DAKOTA/SW MINNESOTA/NW IOWA
NATIONAL WEATHER SERVICE SIOUX FALLS SD
1100 AM CDT SAT MAR 28 2015

NOTE: "FAIR" INDICATES FEW OR NO CLOUDS BELOW 12,000 FEET WITH NO
SIGNIFICANT WEATHER AND OR OBSTRUCTIONS TO VISIBILITY.


SDZ038>040-050-052>070-281700-
SOUTHEAST SOUTH DAKOTA

CITY           SKY/WX    TMP DP  RH WIND       PRES   REMARKS
CHAMBERLAIN    SUNNY     40  31  68 SE13      30.01F
HURON          SUNNY     38  28  67 S16G24    30.06F
MADISON        FAIR      36  28  75 S15G22    30.09F
MITCHELL       SUNNY     40  27  59 S17       30.08F
SIOUX FALLS    MOSUNNY   39  26  59 S14       30.12S
WINNER         FAIR      54  33  45 S14       29.98F
YANKTON        SUNNY     39  27  60 S15G21    30.11F
$$

MNZ071-072-080-081-089-090-097-098-281700-
SOUTHWEST MINNESOTA

CITY           SKY/WX    TMP DP  RH WIND       PRES   REMARKS
FAIRMONT       CLOUDY    36  19  51 S13       30.20S
JACKSON        CLOUDY    34  27  75 SE9       30.19S WCI  26
LUVERNE        MOSUNNY   37  30  75 S15       30.15S
MARSHALL       CLOUDY    36  25  64 S15       30.16F
MONTEVIDEO     CLOUDY    36  27  69 SW13      30.17S
PIPESTONE      SUNNY     34  28  80 S16       30.11F WCI  23
REDWOOD FALLS  CLOUDY    35  25  66 S12       30.19S WCI  27
TRACY          CLOUDY    34  29  83 S13       30.16S WCI  25
WINDOM         CLOUDY    34  27  75 SE10      30.18R WCI  26
WORTHINGTON    CLOUDY    36  25  64 S15       30.17S
$$

IAZ001>003-012>014-020>022-031-032-NEZ013-014-SDZ071-281700-
NORTHWEST IOWA

CITY           SKY/WX    TMP DP  RH WIND       PRES   REMARKS
CHEROKEE       SUNNY     38  28  68 SE12G17   30.18S
DENISON        CLOUDY    39  27  60 SE12G18   30.16S
ESTHERVILLE    CLOUDY    35  24  64 S15       30.19S WCI  25
LE MARS        SUNNY     39  27  60 S15G23    30.16S
ORANGE CITY    SUNNY     39  25  56 S12       30.15S
SHELDON        SUNNY     37  30  75 SE16      30.15S
SIOUX CITY     SUNNY     42  26  53 SE12      30.16S
SPENCER        CLOUDY    36  29  75 SE16      30.18F
STORM LAKE     SUNNY     36  28  75 SE12G18   30.18S
$$

ABBREVIATIONS USED IN REMARKS
   TC - TEMPERATURE IN CELSIUS
  WCI - WIND CHILL INDEX
   HX - HEAT INDEX
  VSB - VISIBILITY




USA.gov is the U.S. government's official web portal to all federal, state and local government web resources and services.